Time,TemperatureF,DewpointF,PressureIn,WindDirection,WindDirectionDegrees,WindSpeedMPH,WindSpeedGustMPH,Humidity,HourlyPrecipIn,Conditions,Clouds,dailyrainin,SoftwareType,DateUTC
2013-10-17 00:24:00,65.0,65.0,-100.00,SSW,204,0.0,-999.0,100,0.00,,,-99.99,,2013-10-17 04:24:00,
2013-10-17 00:34:00,65.0,65.0,-100.00,SSW,204,0.0,-999.0,100,0.00,,,-99.99,,2013-10-17 04:34:00,
2013-10-17 00:43:00,65.0,65.0,-100.00,SSW,204,0.0,-999.0,100,0.00,,,-99.99,,2013-10-17 04:43:00,
2013-10-17 01:23:00,64.0,64.0,-100.00,SSW,204,0.0,-999.0,100,0.00,,,-99.99,,2013-10-17 05:23:00,
2013-10-17 01:34:00,64.0,64.0,-100.00,SSW,204,0.0,-999.0,100,0.00,,,-99.99,,2013-10-17 05:34:00,
2013-10-17 01:42:00,64.0,64.0,-100.00,SSW,204,0.0,-999.0,100,0.00,,,-99.99,,2013-10-17 05:42:00,
2013-10-17 02:22:00,64.0,64.0,-100.00,North,6,0.0,-999.0,100,0.00,,,-99.99,,2013-10-17 06:22:00,
2013-10-17 02:32:00,64.0,64.0,-100.00,North,6,0.0,-999.0,100,0.00,,,-99.99,,2013-10-17 06:32:00,
2013-10-17 02:42:00,64.0,64.0,-100.00,North,6,0.0,-999.0,100,0.00,,,-99.99,,2013-10-17 06:42:00,
2013-10-17 03:22:00,63.0,63.0,-100.00,NW,315,0.0,-999.0,100,0.00,,,-99.99,,2013-10-17 07:22:00,
2013-10-17 03:32:00,63.0,63.0,-100.00,NW,315,0.0,-999.0,100,0.00,,,-99.99,,2013-10-17 07:32:00,
2013-10-17 03:43:00,63.0,63.0,-100.00,NW,315,0.0,-999.0,100,0.00,,,-99.99,,2013-10-17 07:43:00,
2013-10-17 04:22:00,63.0,63.0,-100.00,NW,315,0.0,-999.0,100,0.00,,,-99.99,,2013-10-17 08:22:00,
2013-10-17 04:32:00,63.0,63.0,-100.00,NW,315,0.0,-999.0,100,0.00,,,-99.99,,2013-10-17 08:32:00,
2013-10-17 04:42:00,63.0,63.0,-100.00,NW,315,0.0,-999.0,100,0.00,,,-99.99,,2013-10-17 08:42:00,
2013-10-17 05:22:00,63.0,63.0,-100.00,NNW,327,0.0,-999.0,100,0.00,,,-99.99,,2013-10-17 09:22:00,
2013-10-17 05:33:00,63.0,63.0,-100.00,NNW,327,0.0,-999.0,100,0.00,,,-99.99,,2013-10-17 09:33:00,
2013-10-17 05:43:00,63.0,63.0,-100.00,NNW,327,0.0,-999.0,100,0.00,,,-99.99,,2013-10-17 09:43:00,
2013-10-17 06:23:00,62.0,62.0,-100.00,NW,314,0.0,-999.0,100,0.00,,,-99.99,,2013-10-17 10:23:00,
2013-10-17 06:33:00,62.0,62.0,-100.00,NW,314,0.0,-999.0,100,0.00,,,-99.99,,2013-10-17 10:33:00,
2013-10-17 06:42:00,62.0,62.0,-100.00,NW,314,0.0,-999.0,100,0.00,,,-99.99,,2013-10-17 10:42:00,
2013-10-17 07:22:00,62.0,62.0,-100.00,NW,314,0.0,-999.0,100,0.00,,,-99.99,,2013-10-17 11:22:00,
2013-10-17 07:33:00,62.0,62.0,-100.00,NW,314,0.0,-999.0,100,0.00,,,-99.99,,2013-10-17 11:33:00,
2013-10-17 07:42:00,62.0,62.0,-100.00,NW,314,0.0,-999.0,100,0.00,,,-99.99,,2013-10-17 11:42:00,
2013-10-17 08:22:00,63.0,63.0,-100.00,NW,314,0.0,-999.0,100,0.00,,,-99.99,,2013-10-17 12:22:00,
2013-10-17 08:32:00,63.0,63.0,-100.00,NW,314,0.0,-999.0,100,0.00,,,-99.99,,2013-10-17 12:32:00,
2013-10-17 08:42:00,63.0,63.0,-100.00,NW,314,0.0,-999.0,100,0.00,,,-99.99,,2013-10-17 12:42:00,
2013-10-17 09:22:00,67.0,67.0,-100.00,SSW,209,0.0,-999.0,100,0.00,,,-99.99,,2013-10-17 13:22:00,
2013-10-17 09:33:00,67.0,67.0,-100.00,SSW,209,0.0,-999.0,100,0.00,,,-99.99,,2013-10-17 13:33:00,
2013-10-17 09:42:00,67.0,67.0,-100.00,SSW,209,0.0,-999.0,100,0.00,,,-99.99,,2013-10-17 13:42:00,
2013-10-17 10:22:00,74.0,69.0,-100.00,SSE,156,1.0,-999.0,86,0.00,,,-99.99,,2013-10-17 14:22:00,
2013-10-17 10:32:00,74.0,69.0,-100.00,SSE,156,1.0,-999.0,86,0.00,,,-99.99,,2013-10-17 14:32:00,
2013-10-17 10:42:00,74.0,69.0,-100.00,SSE,156,1.0,-999.0,86,0.00,,,-99.99,,2013-10-17 14:42:00,
2013-10-17 11:22:00,77.0,70.0,-100.00,SSE,168,1.0,-999.0,77,0.00,,,-99.99,,2013-10-17 15:22:00,
2013-10-17 11:33:00,77.0,70.0,-100.00,SSE,168,1.0,-999.0,77,0.00,,,-99.99,,2013-10-17 15:33:00,
2013-10-17 11:43:00,77.0,70.0,-100.00,SSE,168,1.0,-999.0,77,0.00,,,-99.99,,2013-10-17 15:43:00,
2013-10-17 12:23:00,78.0,69.0,-100.00,SSE,158,2.0,-999.0,73,0.00,,,-99.99,,2013-10-17 16:23:00,
2013-10-17 12:33:00,78.0,69.0,-100.00,SSE,158,2.0,-999.0,73,0.00,,,-99.99,,2013-10-17 16:33:00,
2013-10-17 12:42:00,78.0,69.0,-100.00,SSE,158,2.0,-999.0,73,0.00,,,-99.99,,2013-10-17 16:42:00,
2013-10-17 13:22:00,80.0,69.0,-100.00,South,180,1.0,-999.0,69,0.00,,,-99.99,,2013-10-17 17:22:00,
2013-10-17 13:33:00,80.0,69.0,-100.00,South,180,1.0,-999.0,69,0.00,,,-99.99,,2013-10-17 17:33:00,
2013-10-17 13:42:00,80.0,69.0,-100.00,South,180,1.0,-999.0,69,0.00,,,-99.99,,2013-10-17 17:42:00,
2013-10-17 14:22:00,81.0,68.0,-100.00,SSE,162,2.0,-999.0,66,0.00,,,-99.99,,2013-10-17 18:22:00,
2013-10-17 14:32:00,81.0,68.0,-100.00,SSE,162,2.0,-999.0,66,0.00,,,-99.99,,2013-10-17 18:32:00,
2013-10-17 14:42:00,81.0,68.0,-100.00,SSE,162,2.0,-999.0,66,0.00,,,-99.99,,2013-10-17 18:42:00,
2013-10-17 15:22:00,81.0,68.0,-100.00,South,170,1.0,-999.0,66,0.00,,,-99.99,,2013-10-17 19:22:00,
2013-10-17 15:32:00,81.0,68.0,-100.00,South,170,1.0,-999.0,66,0.00,,,-99.99,,2013-10-17 19:32:00,
2013-10-17 15:42:00,81.0,68.0,-100.00,South,170,1.0,-999.0,66,0.00,,,-99.99,,2013-10-17 19:42:00,
2013-10-17 16:22:00,79.0,68.0,-100.00,SSE,158,2.0,-999.0,68,0.00,,,-99.99,,2013-10-17 20:22:00,
2013-10-17 16:32:00,79.0,68.0,-100.00,SSE,158,2.0,-999.0,68,0.00,,,-99.99,,2013-10-17 20:32:00,
2013-10-17 16:42:00,79.0,68.0,-100.00,SSE,158,2.0,-999.0,68,0.00,,,-99.99,,2013-10-17 20:42:00,
2013-10-17 17:22:00,78.0,68.0,-100.00,SSE,152,3.0,-999.0,72,0.00,,,-99.99,,2013-10-17 21:22:00,
2013-10-17 17:34:00,78.0,68.0,-100.00,SSE,152,3.0,-999.0,72,0.00,,,-99.99,,2013-10-17 21:34:00,
2013-10-17 17:44:00,78.0,68.0,-100.00,SSE,152,3.0,-999.0,72,0.00,,,-99.99,,2013-10-17 21:44:00,
2013-10-17 18:24:00,77.0,68.0,-100.00,SSE,153,1.0,-999.0,75,0.00,,,-99.99,,2013-10-17 22:24:00,
2013-10-17 18:33:00,77.0,68.0,-100.00,SSE,153,1.0,-999.0,75,0.00,,,-99.99,,2013-10-17 22:33:00,
2013-10-17 18:43:00,77.0,68.0,-100.00,SSE,153,1.0,-999.0,75,0.00,,,-99.99,,2013-10-17 22:43:00,
2013-10-17 19:22:00,75.0,69.0,-100.00,SSE,153,1.0,-999.0,82,0.00,,,-99.99,,2013-10-17 23:22:00,
2013-10-17 19:34:00,75.0,69.0,-100.00,SSE,153,1.0,-999.0,82,0.00,,,-99.99,,2013-10-17 23:34:00,
2013-10-17 19:43:00,75.0,69.0,-100.00,SSE,153,1.0,-999.0,82,0.00,,,-99.99,,2013-10-17 23:43:00,
2013-10-17 20:22:00,73.0,69.0,-100.00,SSE,164,0.0,-999.0,88,0.00,,,-99.99,,2013-10-18 00:22:00,
2013-10-17 20:33:00,73.0,69.0,-100.00,SSE,164,0.0,-999.0,88,0.00,,,-99.99,,2013-10-18 00:33:00,
2013-10-17 20:42:00,73.0,69.0,-100.00,SSE,164,0.0,-999.0,88,0.00,,,-99.99,,2013-10-18 00:42:00,
2013-10-17 21:22:00,73.0,70.0,-100.00,SSE,159,0.0,-999.0,92,0.00,,,-99.99,,2013-10-18 01:22:00,
2013-10-17 21:32:00,73.0,70.0,-100.00,SSE,159,0.0,-999.0,92,0.00,,,-99.99,,2013-10-18 01:32:00,
2013-10-17 21:42:00,73.0,70.0,-100.00,SSE,159,0.0,-999.0,92,0.00,,,-99.99,,2013-10-18 01:42:00,
2013-10-17 22:22:00,73.0,71.0,-100.00,SE,143,0.0,-999.0,93,0.00,,,-99.99,,2013-10-18 02:22:00,
2013-10-17 22:33:00,73.0,71.0,-100.00,SE,143,0.0,-999.0,93,0.00,,,-99.99,,2013-10-18 02:33:00,
2013-10-17 22:42:00,73.0,71.0,-100.00,SE,143,0.0,-999.0,93,0.00,,,-99.99,,2013-10-18 02:42:00,
2013-10-17 23:22:00,73.0,72.0,-100.00,South,174,1.0,-999.0,94,0.00,,,-99.99,,2013-10-18 03:22:00,
2013-10-17 23:35:00,73.0,72.0,-100.00,South,174,1.0,-999.0,94,0.00,,,-99.99,,2013-10-18 03:35:00,
2013-10-17 23:44:00,73.0,72.0,-100.00,South,174,1.0,-999.0,94,0.00,,,-99.99,,2013-10-18 03:44:00,